Regional Weather Roundup
Issued by NWS

Home | Current Version | Previous Version | Text Only | Print | Product List | Glossary Off
Versions: 1 2 3 4 5 6 7 8 9 10 11 12 13 14 15 16 17 18 19 20 21 22 23 24 25 26 27 28 29 30 31 32 33 34 35 36 37 38 39 40 41 42 43 44 45 46 47 48 49 50

043
ASUS43 KMKX 010821
RWRWI

WISCONSIN REGIONAL WEATHER ROUNDUP
NATIONAL WEATHER SERVICE MILWAUKEE/SULLIVAN WI
300 AM CDT SAT OCT 01 2016

NOTE: "FAIR" INDICATES FEW OR NO CLOUDS BELOW 12,000 FEET WITH NO
SIGNIFICANT WEATHER AND/OR OBSTRUCTIONS TO VISIBILITY.

WIZ001-002-006>008-014>016-023>028-010900-
NORTHWEST WISCONSIN

CITY           SKY/WX    TMP DP  RH WIND       PRES   REMARKS
SUPERIOR ARPT  CLOUDY    51  51 100 NE6       30.26S
ASHLAND        FOG       53  53 100 N3        30.25F VSB 1/4
HAYWARD        CLOUDY    48  47  96 CALM      30.23F
SIREN          CLOUDY    52  51  95 E3        30.22F
CUMBERLAND     PTCLDY    50  48  93 N3        30.22F
RICE LAKE      PTCLDY    51  49  93 CALM      30.22F
CHETEK         NOT AVBL
LADYSMITH      MOCLDY    55  51  87 N5        30.22F
EAU CLAIRE     MOCLDY    57  53  86 N6        30.18F
MENOMONIE      CLOUDY    57  54  89 N5        30.19F
NEW RICHMOND   CLEAR     51  51  99 NE3       30.20F
OSCEOLA        CLEAR     54  54 100 E3        30.23F
$$

WIZ003>005-009-010-017-018-010900-
NORTH CENTRAL WISCONSIN

CITY           SKY/WX    TMP DP  RH WIND       PRES   REMARKS
MANITOWISH WTR NOT AVBL
ARBOR VITAE    MOCLDY    55  51  86 CALM      30.22F
WOODRUFF       MOCLDY    55  51  86 CALM      30.22F
RHINELANDER    PTCLDY    54  51  90 E7        30.21F
EAGLE RIVER    CLOUDY    51  49  92 N3        30.21F
LAND O LAKES   CLOUDY    50  48  93 N3        30.24F
PHILLIPS       CLEAR     49  48  99 N3        30.21F
TOMAHAWK       PTCLDY    53  49  87 CALM      30.20F
MEDFORD        PTCLDY    49  49 100 N5        30.19F
MERRILL        CLOUDY    54  52  93 NE5       30.19F
$$

WIZ029-030-035-036-043>047-010900-
CENTRAL WISCONSIN

CITY           SKY/WX    TMP DP  RH WIND       PRES   REMARKS
WAUSAU         PTCLDY    56  51  84 NE3       30.16F
MOSINEE        CLOUDY    55  52  88 N5        30.18S
MARSHFIELD     CLOUDY    58  50  75 NE8       30.16F
STEVENS POINT  CLOUDY    57  53  86 NE8       30.16S
WAUPACA        DRIZZLE   61  58  92 CALM      30.14F
WAUTOMA        CLOUDY    58  57  97 NE6       30.13F
WISC RAPIDS    CLOUDY    60  54  80 NE7       30.16S
CAMP DOUGLAS   CLOUDY    57  56  96 N5        30.13F
$$

WIZ011>013-019>022-031-037>040-048>050-010900-
NORTHEAST WISCONSIN

CITY           SKY/WX    TMP DP  RH WIND       PRES   REMARKS
ANTIGO         PTCLDY    53  52  95 NE7       30.18F
SHAWANO        LGT RAIN  60  56  85 NE6       30.16S
OCONTO         NOT AVBL
STURGEON BAY   CLOUDY    59  57  93 NE6       30.16F
GREEN BAY      CLOUDY    60  58  92 NE10      30.14S
MANITOWOC      LGT RAIN  59  57  94 MISG      30.13F
APPLETON       RAIN      57  57 100 E8        30.12S
CLINTONVILLE   CLOUDY    57  52  82 NE7       30.14F
OSHKOSH        LGT RAIN  59  57  93 NE8       30.11F FOG
$$

WIZ032>034-041-042-053>061-010900-
SOUTHWEST WISCONSIN

CITY           SKY/WX    TMP DP  RH WIND       PRES   REMARKS
LA CROSSE      CLOUDY    63  55  75 NE6       30.14F
SPARTA         CLOUDY    57  55  93 CALM      30.15S
VIROQUA        CLOUDY    57  57 100 N7        30.13F
BOSCOBEL       CLOUDY    60  58  92 CALM      30.11F
PRAIRIE DU CHI CLOUDY    60  56  89 NW6       30.11S
PLATTEVILLE    CLOUDY    59  59 100 N5        30.09F
$$

WIZ056-057-062-063-064-067-068-010900-
SOUTH CENTRAL WISCONSIN

CITY           SKY/WX    TMP DP  RH WIND       PRES   REMARKS
REEDSBURG      NOT AVBL
BARABOO/DELLS  DRIZZLE   58  56  96 N5        30.10F
LONE ROCK      CLOUDY    59  57  93 NE6       30.10F
MINERAL POINT  CLOUDY    59  59 100 NE8       30.09F
MADISON        CLOUDY    60  58  92 NE8       30.08F
MIDDLETON      CLOUDY    60  60 100 NE5       30.09F
WATERTOWN      CLOUDY    59  59 100 NE3       30.07F
MONROE         DRIZZLE   57  57 100 N7        30.07F
JANESVILLE     CLOUDY    61  59  94 N3        30.05F
$$

WIZ051-052-058>065-066-070>072-010900-
SOUTHEAST WISCONSIN

CITY           SKY/WX    TMP DP  RH WIND       PRES   REMARKS
MILWAUKEE      LGT RAIN  62  59  90 E7        30.07S
WAUKESHA       CLOUDY    57  57 100 E3        30.09S
MILWAUKEE/TIMM HVY RAIN  59  55  88 NE3       30.08S
RACINE         CLOUDY    62  58  86 E6        30.08S
BURLINGTON     CLOUDY    58  58  99 E5        30.06S
KENOSHA        MOCLDY    58  56  93 E3        30.07S
FOND DU LAC    CLOUDY    60  58  92 NE10      30.11F
SHEBOYGAN      LGT RAIN  59  57  93 NE8       30.11S FOG
WEST BEND      DRIZZLE   68  68 100 NE8       30.09S
JUNEAU         CLOUDY    58  57  97 N7        30.10F
$$

LSZ147-162-010900-
LAKE SUPERIOR

STATION/POSITION TIME  TEMP    WIND        PRES    WAVE
                       AIR SEA DIR/SP/G            HT/PER
                 (UTC) (F)     (DEG/KT/KT) (MB)    (FT/S)
W MID LAKE BUOY  0750   57 55   40/  8/ 10 1024.2F   1/ 4
DEVILS ISLAND    0800   54      50/ 11/ 12 1024.6F
SAXON HARBOR     0740   54     190/  2/  3 1024.0F
$$

LMZ867-665-643>646-010900-
LAKE MICHIGAN

STATION/POSITION TIME  TEMP    WIND        PRES    WAVE
                       AIR SEA DIR/SP/G            HT/PER
                 (UTC) (F)     (DEG/KT/KT) (MB)    (FT/S)
CHAMBERS ISLAND  0700   62      60/  7/  9 1021.7S
S GREEN BAY BUOY 0800   62 62   70/ 14/ 16 1020.5F
N MID LAKE BUOY  0750   63 64   90/ 17/ 19 1020.9F   4/ 5
NORTHPORT PIER   0700   62      70/ 11/ 14 1022.0F
SISTER BAY       0708   60     110/  5/  8   N/A
KEWAUNEE LAKESHO 0700   61      60/  6/ 12 1020.4F
SHEBOYGAN LAKESH 0800   61      80/ 15/ 16 1019.2F
PORT WASHINGTON  0700   60      40/  8/ 11 1019.6
ATWATER BUOY     0800   58 56   90/  6/  8 1018.2F
MILWAUKEE LAKESH 0710   57      70/  3/  4   N/A
S MID LAKE BUOY  0750   63 67  100/ 14/ 16 1017.1F   4/ 6
KENOSHA   LAKESH 0800   63     110/  8/ 10 1017.6F
$$

TC  - TEMPERATURE IN CELSIUS
VSB - VISIBILITY IN STATUTE MILES
WCI - WIND CHILL INDEX
HX  - HEAT INDEX





USA.gov is the U.S. government's official web portal to all federal, state and local government web resources and services.